EW6434 Weather Reports


time (UTC)temp
C
wind
direction
speed
KPH
gust
KPH
rain 1hr
cm
rain 24hr
cm
rain mn
cm
humidity
%
barometer
mb
20260502183024 11 257 0.0 6.4 0.00 0.00 0.00 31 1021.3
20260502181520 8 97 0.0 4.8 0.00 0.00 0.00 34 1021.6
20260502163016 8 250 0.0 3.2 0.00 0.00 0.00 38 1022.2
20260502161509 7 87 0.0 4.8 0.00 0.00 0.00 41 1022.5
20260502151610 4 203 0.0 0.0 0.00 0.00 0.00 59 1022.9
20260502140118 -3 189 0.0 0.0 0.00 0.00 0.00 85 1023.8
20260502123040 -4 189 0.0 0.0 0.00 0.00 0.00 84 1022.7
20260502121539 -3 189 0.0 0.0 0.00 0.00 0.00 83 1022.6
20260502114533 -3 189 0.0 0.0 0.00 0.00 0.00 83 1022.5
20260502113045 -3 189 0.0 0.0 0.00 0.00 0.00 83 1022.5
20260502111533 -3 189 0.0 0.0 0.00 0.00 0.00 82 1022.4
20260502110035 -3 189 0.0 0.0 0.00 0.00 0.00 82 1022.4
20260502104527 -3 189 0.0 0.0 0.00 0.00 0.00 81 1022.2
20260502103026 -3 189 0.0 0.0 0.00 0.00 0.00 81 1022.2
20260502101526 -2 189 0.0 0.0 0.00 0.00 0.00 81 1022.2
20260502091518 -2 189 0.0 0.0 0.00 0.00 0.00 81 1021.9
20260502070111 -1 193 0.0 0.0 0.00 0.00 0.00 75 1020.3
20260502064605 0 193 0.0 0.0 0.00 0.00 0.00 74 1020.1
20260502063053 0 193 0.0 0.0 0.00 0.00 0.00 73 1019.7
20260502061545 0 193 0.0 0.0 0.00 0.00 0.00 69 1019.6
20260502060042 1 193 0.0 0.0 0.00 0.00 0.00 66 1019.5
20260502054541 1 193 0.0 0.0 0.00 0.00 0.00 64 1019.4
20260502053041 2 193 0.0 0.0 0.00 0.00 0.00 63 1019.4
20260502051540 2 149 0.0 0.0 0.00 0.00 0.00 65 1019.4
20260502050041 2 62 0.0 3.2 0.00 0.00 0.00 62 1019.5
20260502044539 2 20 1.6 9.7 0.00 0.00 0.00 61 1019.6
20260502043039 2 224 0.0 4.8 0.00 0.00 0.00 62 1019.5
20260502041546 2 70 0.0 3.2 0.00 0.00 0.00 58 1019.5
20260502040036 2 272 0.0 3.2 0.00 0.00 0.00 64 1019.3
20260502034535 2 308 0.0 6.4 0.00 0.00 0.00 63 1019.1
20260502033032 2 269 0.0 4.8 0.00 0.00 0.00 64 1018.8
20260502031531 2 263 0.0 4.8 0.00 0.00 0.00 67 1018.5
20260502030030 2 243 0.0 9.7 0.00 0.00 0.00 69 1018.2
20260502024529 2 223 0.0 1.6 0.00 0.00 0.00 65 1018.1
20260502023026 2 240 0.0 4.8 0.00 0.00 0.00 63 1017.6
20260502021524 2 249 0.0 4.8 0.00 0.00 0.00 66 1017.4
20260502020024 2 262 0.0 4.8 0.00 0.00 0.00 68 1017.4
20260502014524 2 105 0.0 1.6 0.00 0.00 0.00 66 1017.3
20260502013023 2 259 0.0 1.6 0.00 0.00 0.00 67 1017.1
20260502011521 2 238 0.0 4.8 0.00 0.00 0.00 68 1017.0
20260502010021 2 205 0.0 8.0 0.00 0.00 0.00 70 1017.1
20260502004521 2 210 0.0 3.2 0.00 0.00 0.00 69 1017.1
20260502003019 3 259 0.0 11.3 0.00 0.00 0.00 62 1016.9
20260502001519 5 255 3.2 12.9 0.00 0.00 0.00 57 1016.3
20260502000014 5 116 0.0 9.7 0.00 0.00 0.00 54 1016.0
20260501234514 6 274 3.2 12.9 0.00 0.00 0.00 48 1015.5
20260501233013 8 233 1.6 12.9 0.00 0.00 0.00 44 1015.3
20260501231512 9 230 3.2 14.5 0.00 0.00 0.00 46 1014.9
20260501230014 7 206 3.2 11.3 0.00 0.00 0.00 43 1014.7
20260501224511 7 150 3.2 12.9 0.00 0.00 0.00 44 1014.7
20260501223009 7 219 3.2 11.3 0.00 0.00 0.00 45 1014.7
20260501221513 8 251 0.0 11.3 0.00 0.00 0.00 42 1014.8
20260501220021 8 201 1.6 9.7 0.00 0.00 0.00 44 1014.8
20260501214514 7 150 0.0 4.8 0.00 0.00 0.00 46 1014.8
20260501213006 8 203 1.6 8.0 0.00 0.00 0.00 45 1014.8
20260501211515 7 243 3.2 12.9 0.00 0.00 0.00 51 1014.9
20260501210006 6 174 1.6 11.3 0.00 0.00 0.00 52 1015.1
20260501204505 6 233 6.4 9.7 0.00 0.00 0.00 48 1015.0
20260501203003 6 220 3.2 14.5 0.00 0.00 0.00 47 1014.9
20260501201503 7 132 4.8 11.3 0.00 0.00 0.00 41 1014.7
20260501200003 8 255 0.0 11.3 0.00 0.00 0.00 36 1014.5
20260501194502 6 275 0.0 6.4 0.00 0.00 0.00 40 1014.7
20260501193002 6 152 0.0 3.2 0.00 0.00 0.00 40 1014.8
20260501191501 7 246 1.6 9.7 0.00 0.00 0.00 37 1014.8
20260501190104 7 259 0.0 9.7 0.00 0.00 0.00 35 1014.6
20260501184600 8 218 0.0 6.4 0.00 0.00 0.00 29 1014.7